This is the latest recevied weather packets stored in our database for station/object WC4PEM-9. If no packets are shown the sender has not sent any weather packets the latest 10 day(s).
| Time | Temp. | Humidity | Pressure | Rain* | Wind** | Luminosity | Snow |
|---|---|---|---|---|---|---|---|
| 1777856013 | 19.44° C | 84% | 1015.9 hPa | 0 mm | - | - | - |
| 1777855777 | 20° C | 82% | 1015.8 hPa | 0 mm | - | - | - |
| 1777855713 | 20° C | 83% | 1015.9 hPa | 0 mm | - | - | - |
| 1777855413 | 20° C | 82% | 1015.8 hPa | 0 mm | - | - | - |
| 1777855396 | 20° C | 80% | 1015.8 hPa | 0 mm | - | - | - |
| 1777855113 | 20° C | 80% | 1015.8 hPa | 0 mm | - | - | - |
| 1777854813 | 20.56° C | 80% | 1015.8 hPa | 0 mm | - | - | - |
| 1777854513 | 20.56° C | 79% | 1015.7 hPa | 0 mm | - | - | - |
| 1777854213 | 21.11° C | 79% | 1015.4 hPa | 0 mm | - | - | - |
| 1777853913 | 21.11° C | 78% | 1015.6 hPa | 0 mm | - | - | - |
| 1777853849 | 21.67° C | 75% | 1015.3 hPa | 0 mm | - | - | - |
| 1777853613 | 21.67° C | 77% | 1015.6 hPa | 0 mm | - | - | - |
| 1777853313 | 21.67° C | 75% | 1015.3 hPa | 0 mm | - | - | - |
| 1777853013 | 21.67° C | 74% | 1015.6 hPa | 0 mm | - | - | - |
| 1777852713 | 21.67° C | 74% | 1015.6 hPa | 0 mm | - | - | - |
| 1777852418 | 22.22° C | 73% | 1015.3 hPa | 0 mm | - | - | - |
| 1777852413 | 22.22° C | 73% | 1015.5 hPa | 0 mm | - | - | - |
| 1777852113 | 22.22° C | 73% | 1015.3 hPa | 0 mm | - | - | - |
| 1777851813 | 22.22° C | 72% | 1015.4 hPa | 0 mm | - | - | - |
| 1777851703 | 22.78° C | 71% | 1015.3 hPa | 0 mm | - | - | - |
| 1777851513 | 22.78° C | 71% | 1015.3 hPa | 0 mm | - | - | - |
| 1777851213 | 22.78° C | 72% | 1015.2 hPa | 0 mm | - | - | - |
| 1777850913 | 22.78° C | 70% | 1015.3 hPa | 0 mm | - | - | - |
| 1777850613 | 23.33° C | 69% | 1014.9 hPa | 0 mm | - | - | - |
| 1777850594 | 23.33° C | 69% | 1015.1 hPa | 0 mm | - | - | - |
* Rain latest hour (hover to see other rain measurements)
** Current wind speed in m/s (hover to see current wind gust speed)